User: anonymous   Login
Location: Unspecified
(0.0000°N, 0.0000°E)
Time: 22:20:20
(UTC+00:00)
Language:

STARLINK-5250 - Orbit

View from above orbital plane
View from above orbital plane
View from above satellite
View from above satellite

Ground track
Ground track

The orbit is defined by the following mean orbital elements,

1 54200U          26145.61064272 +.00000000 +00000-0 +25819-4 0 00009
2 54200  53.2135   8.5723 0001208  89.5252 270.5878 15.08834338    09
Epoch (UTC): 25 May 2026 14:39:19
Eccentricity: 0.0001208
inclination: 53.2135°
perigee height: 539 km
apogee height: 541 km
right ascension of ascending node: 8.5723°
argument of perigee: 89.5252°
revolutions per day: 15.08834338
mean anomaly at epoch: 270.5878°

The dashed part of the orbit path shows where the satellite is in the earth's shadow,  

DLR